Weather Roundup
Issued by NWS

Home | Current Version | Previous Version | Graphics & Text | Print | Product List | Glossary Off
Versions: 1 2 3 4 5 6 7 8 9 10 11 12 13 14 15 16 17 18 19 20 21 22 23 24 25 26 27 28 29 30 31 32 33 34 35 36 37 38 39 40 41 42 43 44 45 46 47 48 49 50

000
NZUS93 KARX 250659
HRRWXR

CURRENT HOURLY OBSERVATIONS ACROSS
MUCH OF THE UPPER MISSISSIPPI VALLEY
NATIONAL WEATHER SERVICE LA CROSSE WI
100 AM CST SUN JAN 25 2015


...SOUTHEAST MINNESOTA...


CITY           SKY/WX    TMP DP  RH WIND       PRES   REMARKS
ROCHESTER      CLOUDY    33  30  88 NE10      29.62R WCI  25
ROCHESTER/MAYO CLOUDY    35  30  83 NE5       29.63R WCI  31
WINONA         CLOUDY    34  32  93 CALM      29.67R
AUSTIN         CLOUDY    34  32  93 NE12      29.59S WCI  25
ALBERT LEA     CLOUDY    36  34  93 NE9       29.59R WCI  29
DODGE CENTER   CLOUDY    34  32  93 NE9       29.62R WCI  26
PRESTON        CLOUDY    33  31  90 NE7       29.61S WCI  27
OWATONNA       CLOUDY    34  30  86 NE9       29.63R WCI  26
FARIBAULT      LGT SNOW  34  32  93 NE13      29.65R WCI  25
$$

...ELSEWHERE IN MINNESOTA...


CITY           SKY/WX    TMP DP  RH WIND       PRES   REMARKS
MINNEAPOLIS    FLURRIES  34  31  88 NE8       29.71R WCI  27
INTNL FALLS    CLOUDY     6  -3  66 E12       29.93R WCI  -9
DULUTH         FLURRIES  20  12  71 E17       29.82R WCI   5
RED WING       LGT RAIN  36  30  80 E3        29.69R
REDWOOD FALLS  LGT SNOW  34  32  92 NE7       29.69R FOG     WCI  28
MANKATO        CLOUDY    36  30  80 NE10      29.64R WCI  28
WORTHINGTON    CLOUDY    32  28  86 N15       29.64R WCI  22
FAIRMONT       CLOUDY    34  28  80 N13       29.61R WCI  25
$$

...SOUTHWEST WISCONSIN...


CITY           SKY/WX    TMP DP  RH WIND       PRES   REMARKS
LA CROSSE      CLOUDY    37  30  75 E8        29.65R WCI  31
PRAIRIE DU CHI CLOUDY    35  32  90 E6        29.61S WCI  29
BOSCOBEL       CLOUDY    35  30  82 NE6       29.64S WCI  30
LONE ROCK      CLOUDY    32  30  92 E7        29.65S WCI  26
PLATTEVILLE    CLOUDY    33  32  95 NE12      29.61S WCI  25
FORT MC COY    CLOUDY    32  30  93 CALM      29.67R
CAMP DOUGLAS   MIX PCPN  30  30 100 NE3       29.68R
VIROQUA        CLOUDY    32  32 100 E7        29.62S WCI  26
WIS DELLS      NOT AVBL
$$

...ELSEWHERE IN WISCONSIN...


CITY           SKY/WX    TMP DP  RH WIND       PRES   REMARKS
MILWAUKEE      CLOUDY    32  27  81 NE17G25   29.70R WCI  21
MADISON        CLOUDY    32  28  85 NE5       29.66R WCI  27
GREEN BAY      CLOUDY    22  15  75 NE20G29   29.79R WCI   7
EAU CLAIRE     NOT AVBL
BLACK RVR FLS  LGT SNOW  32  32 100 CALM      29.66S
MEDFORD        CLOUDY    27  21  80 NE15      29.71R WCI  15
WAUSAU         CLOUDY    28  21  75 NE12      29.72R WCI  18
WIS RAPIDS     CLOUDY    29  24  82 E12       29.73R WCI  19
MARSHFIELD     CLOUDY    30  26  85 E15       29.70R WCI  19
RICE LAKE      CLOUDY    29  22  74 NE15G22   29.75R WCI  18
$$

...NORTHEAST IOWA...


CITY           SKY/WX    TMP DP  RH WIND       PRES   REMARKS
DECORAH        CLOUDY    34  34 100 NE5       29.59R WCI  30
MASON CITY     CLOUDY    33  32  96 N5        29.58S WCI  29
CHARLES CITY   CLOUDY    34  34 100 E7        29.57F WCI  28
OELWEIN        CLOUDY    34  34 100 E7        29.58S WCI  28
$$

...ELSEWHERE IN IOWA...


CITY           SKY/WX    TMP DP  RH WIND       PRES   REMARKS
DES MOINES     LGT RAIN  41  37  86 S3        29.55F FOG
IOWA CITY      CLOUDY    33  31  92 CALM      29.58F
FORT DODGE     CLOUDY    36  32  87 N6        29.57S WCI  31
$$

...NORTHERN ILLINOIS...


CITY           SKY/WX    TMP DP  RH WIND       PRES   REMARKS
CHICAGO-OHARE  CLOUDY    32  29  88 NE5       29.67S WCI  27
CHICAGO-MIDWAY MOCLDY    35  31  85 E6        29.67F WCI  30
MOLINE         CLOUDY    32  30  92 NE5       29.58F WCI  27
ROCKFORD       CLOUDY    33  29  85 E12       29.66S WCI  24
PEORIA         MOCLDY    38  32  79 S3        29.61F
$$

NOTE: "FAIR" INDICATES FEW OR NO CLOUDS BELOW 12,000 FEET WITH NO
SIGNIFICANT WEATHER AND/OR OBSTRUCTIONS TO VISIBILITY. WIND
SPEEDS ARE IN MILES-PER-HOUR.



USA.gov is the U.S. government's official web portal to all federal, state and local government web resources and services.